GEFSGL_con_cape1000_156.txt.gz
Probability
23 19 10 10 6 3 6 6 3 3 3 3 3 3 3 3 3 3 3 3 3 3 0 0 0 0 0 0 0 0 0 0 0 0 0 0 0 0 0 0 0 0 0
13 16 13 10 6 6 6 6 3 3 3 3 6 6 3 3 3 3 3 3 3 3 3 3 0 0 0 0 0 0 0 0 0 0 0 0 0 0 0 0 0 0 0
13 16 13 10 6 6 3 3 3 3 3 3 3 6 3 3 3 3 3 3 3 3 3 3 3 3 0 0 0 0 0 0 0 0 0 0 0 0 0 0 0 0 0
16 16 19 16 13 6 6 3 3 3 3 3 3 3 3 3 3 3 3 3 3 3 3 3 3 3 3 3 0 0 0 0 0 0 0 0 0 0 0 0 0 0 0
16 16 19 19 10 10 6 6 10 10 10 10 10 6 6 6 6 6 6 6 6 3 3 3 3 3 3 0 0 0 0 0 0 0 0 0 0 0 0 0 0 0 0
16 19 16 13 10 10 10 10 10 10 10 10 10 10 10 6 6 0 0 6 6 6 6 3 3 3 0 0 0 0 0 0 0 0 0 0 0 0 0 0 0 0 0
16 13 13 13 13 10 10 10 10 10 10 10 10 10 10 6 3 0 0 0 3 3 3 3 3 3 0 3 0 0 0 0 0 0 0 0 0 0 0 0 0 0 0
6 10 10 10 10 10 10 10 6 6 6 6 6 6 6 3 3 0 0 0 0 3 3 3 3 3 3 3 3 3 0 0 0 0 0 0 0 0 0 0 0 0 0
10 6 6 6 6 6 6 6 6 6 3 3 0 0 0 0 0 0 0 0 0 0 0 3 3 3 3 0 0 3 3 3 0 0 0 0 0 0 0 0 0 0 0
6 6 3 3 6 6 6 3 3 3 0 0 0 0 0 0 0 0 0 0 0 0 0 0 0 0 0 0 0 0 3 3 3 0 0 0 0 0 0 0 0 0 0
0 0 0 0 0 0 3 3 0 0 0 0 0 0 0 0 0 0 0 0 0 0 0 0 0 0 0 0 0 0 0 0 3 3 3 0 0 0 0 0 0 0 0
0 0 0 0 0 0 0 0 0 0 0 0 0 0 0 0 0 0 0 0 0 0 0 0 0 0 0 0 0 0 0 0 0 0 0 0 0 0 0 0 0 0 0
0 0 0 0 0 0 0 0 0 0 0 0 0 0 0 0 0 0 0 0 0 0 0 0 0 0 0 0 0 0 0 0 0 0 0 0 0 0 0 0 0 0 0
0 0 0 0 0 0 0 0 3 0 3 3 3 0 0 0 0 0 0 0 0 0 0 0 0 0 0 0 0 0 0 0 0 0 0 0 0 0 0 0 0 0 0
0 0 0 0 0 0 0 0 0 0 0 3 3 3 0 0 0 0 0 0 0 0 0 0 0 0 0 0 0 0 0 0 0 0 0 0 0 0 0 0 0 0 0
0 0 0 0 0 0 0 0 0 0 0 0 0 0 0 0 0 0 0 0 0 0 0 0 0 0 0 0 0 0 0 0 0 0 0 0 0 0 0 0 0 0 0
0 0 0 0 0 0 0 0 0 0 0 0 0 0 0 0 0 0 0 0 0 0 0 0 0 0 0 0 0 0 0 0 0 0 0 0 0 0 0 0 0 0 0
0 0 0 0 0 0 0 0 0 0 0 0 0 0 0 0 0 0 0 0 0 0 0 0 0 0 0 0 0 0 0 0 0 0 0 0 0 0 0 0 0 0 0
0 0 0 0 0 0 0 0 0 0 0 0 0 0 0 0 0 0 0 0 0 0 0 0 0 0 0 0 0 0 0 0 0 0 0 0 0 0 0 0 0 0 0
0 0 0 0 0 0 0 0 0 0 0 0 0 0 0 0 0 0 0 0 0 0 0 0 0 0 0 0 0 0 0 0 0 0 0 0 0 0 0 0 0 0 0
0 0 0 0 0 0 0 0 0 0 0 0 0 0 0 0 0 0 0 0 0 0 0 0 0 0 0 0 0 0 0 0 0 0 0 0 0 0 0 0 0 0 0
0 0 0 0 0 0 0 0 0 0 0 0 0 0 0 0 0 0 0 0 0 0 0 0 0 0 0 0 0 0 0 0 0 0 0 0 0 0 0 0 0 0 0
0 0 0 0 0 0 0 0 0 0 0 0 0 0 0 0 0 0 0 0 0 0 0 0 0 0 0 0 0 0 0 0 0 0 0 0 0 0 0 0 0 0 0
0 0 0 0 0 0 0 0 0 0 0 0 0 0 0 0 0 0 0 0 0 0 0 0 0 0 0 0 0 0 0 0 0 0 0 0 0 0 0 0 0 0 0
0 0 0 0 0 0 0 0 0 0 0 0 0 0 0 0 0 0 0 0 0 0 0 0 0 0 0 0 0 0 0 0 0 0 0 0 0 0 0 0 0 0 0
0 0 0 0 0 0 0 0 0 0 0 0 0 0 0 0 0 0 0 0 0 0 0 0 0 0 0 0 0 0 0 0 0 0 0 0 0 0 0 0 0 0 0

GEFSGL_con_cape1000_162.txt.gz
Probability
71 61 58 65 61 58 55 55 55 48 52 45 39 42 39 45 45 55 39 39 32 42 29 29 35 39 32 35 26 35 29 32 26 10 3 10 19 19 10 10 13 19 3
58 55 58 52 52 52 52 55 58 55 48 39 35 39 35 35 42 39 32 26 29 29 29 29 26 23 32 29 39 19 29 29 26 26 19 13 26 23 26 26 10 0 6
48 52 48 52 45 45 45 45 48 48 42 39 45 39 35 29 39 32 26 23 23 26 19 23 19 13 23 29 23 19 23 13 23 19 23 32 16 16 19 16 6 23 3
52 48 52 52 42 39 45 45 45 42 42 39 32 35 32 32 26 23 26 23 23 23 16 19 16 10 13 16 16 23 13 16 23 16 19 16 19 16 19 16 6 16 3
55 52 42 45 35 42 42 39 39 39 29 32 32 29 29 19 19 19 26 19 32 23 19 19 10 6 6 6 6 16 13 13 16 13 13 10 6 10 10 13 10 6 13
52 48 45 39 42 35 32 35 32 29 26 26 26 23 19 13 10 6 6 19 23 23 19 23 16 6 6 3 0 0 3 3 10 13 10 3 6 3 10 3 10 10 10
52 42 42 45 45 39 29 35 32 29 26 26 23 26 26 19 3 3 3 6 13 16 19 23 10 10 6 10 6 0 0 0 0 3 3 6 3 6 3 6 6 6 6
42 39 39 39 32 35 39 35 35 29 26 23 26 23 23 16 0 0 0 3 10 16 16 16 19 16 6 3 6 3 6 3 3 0 3 3 3 3 3 3 3 3 3
45 45 45 35 32 35 26 23 23 26 29 19 19 19 19 13 0 0 0 0 6 6 6 13 16 13 3 0 0 3 0 0 0 0 0 0 0 0 0 3 3 3 3
39 39 29 32 26 23 23 19 19 16 16 19 16 16 16 10 0 0 0 0 3 6 13 13 3 0 0 0 3 3 3 3 0 0 0 0 0 0 0 0 3 3 3
32 23 23 23 19 19 16 13 13 13 10 10 10 10 10 10 6 0 0 0 3 13 10 16 10 0 0 0 0 0 3 0 0 0 0 0 0 3 3 3 3 3 3
13 13 10 10 3 3 6 10 10 10 10 6 6 10 10 10 6 3 0 0 0 13 13 13 0 0 0 0 0 0 0 0 0 0 0 0 0 0 0 3 3 3 3
6 6 6 3 3 3 3 3 6 13 10 6 6 6 10 10 10 0 0 0 0 0 6 0 0 0 0 0 0 0 0 0 0 0 0 0 0 0 0 3 3 3 3
6 3 0 3 3 0 3 3 3 3 3 6 3 6 6 6 3 0 0 0 0 0 0 0 0 0 0 0 0 0 0 0 0 0 0 0 0 0 0 0 3 3 0
3 0 0 0 0 3 0 0 0 3 3 3 6 6 6 3 3 0 0 0 0 0 0 0 0 0 0 0 0 0 0 0 0 0 0 0 0 0 0 0 0 0 0
3 0 3 3 3 3 3 0 0 0 0 0 0 0 3 0 0 0 0 0 0 0 0 0 0 0 0 0 0 0 0 0 0 0 0 0 0 0 0 0 0 0 0
0 0 3 3 0 3 3 0 0 0 0 0 0 0 0 0 0 0 0 0 0 0 0 0 0 0 0 0 0 0 0 0 0 0 0 0 0 0 0 0 0 0 0
0 0 0 0 0 0 0 0 0 0 0 0 0 0 0 0 0 0 0 0 0 0 0 0 0 0 0 0 0 0 0 0 0 0 0 0 0 0 0 0 0 0 0
0 0 0 0 0 0 0 0 0 0 0 0 0 0 0 0 0 0 0 0 0 0 0 0 0 0 0 0 0 0 0 0 0 0 0 0 0 0 0 0 0 0 0
0 0 0 0 0 0 0 0 0 0 0 0 0 0 0 0 0 0 0 0 0 0 0 0 0 0 0 0 0 0 0 0 0 0 0 0 0 0 0 0 0 0 0
0 0 0 0 0 0 0 0 0 0 0 0 0 0 0 0 0 0 0 0 0 0 0 0 0 0 0 0 0 0 0 0 0 0 0 0 0 0 0 0 0 0 0
0 0 0 0 0 0 0 0 0 0 0 0 0 0 0 0 0 0 0 0 0 0 0 0 0 0 0 0 0 0 0 0 0 0 0 0 0 0 0 0 0 0 0
0 0 0 0 0 0 0 0 0 0 0 0 0 0 0 0 0 0 0 0 0 0 0 0 0 0 0 0 0 0 0 0 0 0 0 0 0 0 0 0 0 0 0
0 0 0 0 0 0 0 0 0 0 0 0 0 0 0 0 0 0 0 0 0 0 0 0 0 0 0 0 0 0 0 0 0 0 0 0 0 0 0 0 0 0 0
0 0 0 0 0 0 0 0 0 0 0 0 0 0 0 0 0 0 0 0 0 0 0 0 0 0 0 0 0 0 0 0 0 0 0 0 0 0 0 0 0 0 0
0 0 0 0 0 0 0 0 0 0 0 0 0 0 0 0 0 0 0 0 0 0 0 0 0 0 0 0 0 0 0 0 0 0 0 0 0 0 0 0 0 0 0

GEFSGL_con_cape1000_168.txt.gz
Probability
84 77 77 74 68 61 61 58 58 61 58 61 61 65 61 52 58 58 52 55 45 45 39 39 42 48 45 45 42 26 29 32 10 13 26 26 23 23 10 19 13 10 0
77 77 68 68 68 65 58 58 61 58 58 58 52 52 52 52 58 48 42 42 42 35 32 39 35 29 32 32 29 23 23 23 16 10 19 19 19 23 23 29 13 13 10
71 68 68 65 65 65 65 61 58 58 61 58 58 52 52 48 52 48 42 45 32 32 29 29 32 23 29 19 23 19 19 6 16 10 6 13 16 10 19 16 10 10 3
65 68 65 65 65 61 61 58 52 55 55 55 48 45 52 45 39 42 35 32 29 29 29 29 23 19 19 19 19 19 16 13 10 10 10 10 13 16 13 13 6 13 3
61 61 61 61 65 61 55 52 52 52 45 45 39 35 35 29 16 23 26 19 26 26 23 19 19 13 13 6 6 16 10 6 6 3 6 6 6 10 10 10 3 6 3
65 65 61 61 68 58 58 48 42 45 42 39 32 35 26 19 3 3 6 19 26 26 19 23 19 16 6 3 3 3 3 3 6 10 10 13 3 10 13 3 3 3 0
61 58 58 58 58 48 52 45 45 45 42 42 39 32 26 19 6 3 3 6 16 16 19 19 13 3 0 6 3 3 0 0 0 3 3 10 6 6 6 6 3 3 3
65 55 55 55 45 48 42 45 42 35 35 35 29 26 23 16 3 0 0 0 3 16 16 13 13 13 6 6 3 0 0 3 3 0 0 0 0 6 6 3 6 0 0
58 58 52 48 45 42 39 32 35 35 29 26 19 19 19 13 6 0 0 0 6 6 6 10 10 13 3 0 0 3 3 3 0 0 0 0 0 0 0 0 0 0 0
48 52 48 45 42 42 32 32 29 23 19 19 19 19 16 10 6 0 0 0 6 6 6 3 3 0 0 0 0 0 0 6 0 0 0 0 0 0 0 0 0 0 0
39 42 39 42 35 29 26 23 23 16 16 16 13 16 13 10 6 3 0 0 6 6 10 6 6 0 0 0 0 0 0 0 0 0 0 0 0 0 0 0 0 0 0
35 35 35 35 23 19 19 16 16 13 16 13 13 16 13 10 3 3 0 0 0 3 6 10 10 0 0 0 0 0 0 0 0 0 0 0 0 0 0 0 0 0 0
23 19 16 16 13 13 13 10 6 6 6 6 6 6 6 6 3 3 0 0 0 0 3 0 0 0 0 0 0 0 0 0 0 0 0 0 0 0 0 0 0 0 0
19 19 16 10 6 3 6 3 3 6 6 6 6 6 6 3 3 3 3 0 0 0 0 0 0 0 0 0 0 0 0 0 0 0 0 0 0 0 0 0 0 0 0
19 13 13 10 3 3 3 3 3 0 0 0 3 3 0 3 0 0 3 3 3 0 0 0 0 0 0 0 0 0 0 0 0 0 0 0 0 0 0 0 0 0 0
16 6 3 3 0 0 3 0 0 0 0 0 0 0 0 0 0 0 0 0 0 0 0 0 0 0 0 0 0 0 0 0 0 0 0 0 0 0 0 0 0 0 0
10 6 3 0 0 0 0 0 0 0 0 0 0 0 0 0 0 0 0 0 0 0 0 0 0 0 0 0 0 0 0 0 0 0 0 0 0 0 0 0 0 0 0
3 3 3 3 0 0 0 0 0 0 0 0 0 0 0 0 0 0 0 0 0 0 0 0 0 0 0 0 0 0 0 0 0 0 0 0 0 0 0 0 0 0 0
6 3 3 0 0 0 0 0 0 0 0 0 0 0 0 0 0 0 0 0 0 0 0 0 0 0 0 0 0 0 0 0 0 0 0 0 0 0 0 0 0 0 0
3 0 0 0 0 0 0 0 0 0 0 0 0 0 0 0 0 0 0 0 0 0 0 0 0 0 0 0 0 0 0 0 0 0 0 0 0 0 0 0 0 0 0
0 0 0 0 0 0 0 0 0 0 0 0 0 0 0 0 0 0 0 0 0 0 0 0 0 0 0 0 0 0 0 0 0 0 0 0 0 0 0 0 0 0 0
0 0 0 0 0 0 0 0 0 0 0 0 0 0 0 0 0 0 0 0 0 0 0 0 0 0 0 0 0 0 0 0 0 0 0 0 0 0 0 0 0 0 0
0 0 0 0 0 0 0 0 0 0 0 0 0 0 0 0 0 0 0 0 0 0 0 0 0 0 0 0 0 0 0 0 0 0 0 0 0 0 0 0 0 0 0
0 0 0 0 0 0 0 0 0 0 0 0 0 0 0 0 0 0 0 0 0 0 0 0 0 0 0 0 0 0 0 0 0 0 0 0 0 0 0 0 0 0 0
0 0 0 0 0 0 0 0 0 0 0 0 0 0 0 0 0 0 0 0 0 0 0 0 0 0 0 0 0 0 0 0 0 0 0 0 0 0 0 0 0 0 0
0 0 0 0 0 0 0 0 0 0 0 0 0 0 0 0 0 0 0 0 0 0 0 0 0 0 0 0 0 0 0 0 0 0 0 0 0 0 0 0 0 0 0

GEFSGL_con_cape1000_174.txt.gz
Probability
58 45 42 35 29 23 29 26 23 19 10 6 3 6 10 10 10 10 10 6 6 6 6 3 3 3 3 3 3 3 3 3 3 3 3 3 0 0 0 0 0 0 0
55 42 39 32 26 26 23 23 19 16 6 6 10 10 10 10 10 13 10 10 10 6 6 6 6 6 6 3 3 3 3 3 3 3 3 3 3 0 0 0 0 3 0
48 42 39 32 23 19 19 16 16 16 13 10 10 13 10 13 10 10 6 10 6 6 6 6 3 3 3 3 3 3 3 3 3 3 3 3 3 3 3 3 3 0 0
48 45 32 32 23 19 16 10 13 16 13 16 16 13 13 13 13 10 6 3 3 3 6 6 6 6 3 3 3 3 3 3 3 3 3 3 3 3 3 3 3 0 0
45 39 39 32 26 23 16 13 16 19 16 13 13 13 13 13 6 0 0 0 0 0 3 3 3 3 0 0 0 0 0 0 0 0 0 0 0 0 0 0 0 0 0
42 39 32 32 26 26 23 19 19 19 16 13 13 10 6 6 3 0 0 0 0 0 0 0 0 0 0 0 0 0 0 0 0 0 0 0 0 0 0 0 0 0 0
42 35 32 29 29 26 23 19 19 16 13 10 6 3 3 3 3 0 0 0 0 0 0 0 0 0 0 0 0 0 0 0 0 0 0 0 0 0 0 0 0 0 0
32 39 29 32 29 23 16 16 13 6 6 6 6 6 3 3 0 0 0 0 0 0 0 0 0 0 0 0 0 0 0 0 0 0 0 0 0 0 0 0 0 0 0
35 32 23 26 23 19 13 10 10 6 6 6 3 3 3 3 0 0 0 0 0 0 0 0 0 0 0 0 0 0 0 0 0 0 0 0 0 0 0 0 0 0 0
32 29 26 19 19 19 13 6 0 0 3 6 3 3 3 3 0 0 0 0 0 0 0 0 0 0 0 0 0 0 0 0 0 0 0 0 0 0 0 0 0 0 0
19 19 13 10 6 3 0 3 3 3 3 3 3 3 3 3 3 0 0 0 0 0 0 0 0 0 0 0 0 0 0 0 0 0 0 0 0 0 0 0 0 0 0
16 10 10 6 3 3 0 0 0 0 3 3 3 3 3 3 3 3 0 0 0 0 0 0 0 0 0 0 0 0 0 0 0 0 0 0 0 0 0 0 0 0 0
13 10 6 3 0 0 0 0 0 0 0 0 0 3 3 0 0 0 0 0 0 0 0 0 0 0 0 0 0 0 0 0 0 0 0 0 0 0 0 0 0 0 0
10 6 0 0 0 0 0 0 0 0 0 0 0 0 0 0 0 0 0 0 0 0 0 0 0 0 0 0 0 0 0 0 0 0 0 0 0 0 0 0 0 0 0
3 0 0 0 0 0 0 0 0 0 0 0 0 0 0 0 0 0 0 0 0 0 0 0 0 0 0 0 0 0 0 0 0 0 0 0 0 0 0 0 0 0 0
3 0 0 0 0 0 0 0 0 0 0 0 0 0 0 0 0 0 0 0 0 0 0 0 0 0 0 0 0 0 0 0 0 0 0 0 0 0 0 0 0 0 0
3 0 0 0 0 0 0 0 0 0 0 0 0 0 0 0 0 0 0 0 0 0 0 0 0 0 0 0 0 0 0 0 0 0 0 0 0 0 0 0 0 0 0
0 0 0 0 0 0 0 0 0 0 0 0 0 0 0 0 0 0 0 0 0 0 0 0 0 0 0 0 0 0 0 0 0 0 0 0 0 0 0 0 0 0 0
0 0 0 0 0 0 0 0 0 0 0 0 0 0 0 0 0 0 0 0 0 0 0 0 0 0 0 0 0 0 0 0 0 0 0 0 0 0 0 0 0 0 0
0 0 0 0 0 0 0 0 0 0 0 0 0 0 0 0 0 0 0 0 0 0 0 0 0 0 0 0 0 0 0 0 0 0 0 0 0 0 0 0 0 0 0
0 0 0 0 0 0 0 0 0 0 0 0 0 0 0 0 0 0 0 0 0 0 0 0 0 0 0 0 0 0 0 0 0 0 0 0 0 0 0 0 0 0 0
0 0 0 0 0 0 0 0 0 0 0 0 0 0 0 0 0 0 0 0 0 0 0 0 0 0 0 0 0 0 0 0 0 0 0 0 0 0 0 0 0 0 0
0 0 0 0 0 0 0 0 0 0 0 0 0 0 0 0 0 0 0 0 0 0 0 0 0 0 0 0 0 0 0 0 0 0 0 0 0 0 0 0 0 0 0
0 0 0 0 0 0 0 0 0 0 0 0 0 0 0 0 0 0 0 0 0 0 0 0 0 0 0 0 0 0 0 0 0 0 0 0 0 0 0 0 0 0 0
0 0 0 0 0 0 0 0 0 0 0 0 0 0 0 0 0 0 0 0 0 0 0 0 0 0 0 0 0 0 0 0 0 0 0 0 0 0 0 0 0 0 0
0 0 0 0 0 0 0 0 0 0 0 0 0 0 0 0 0 0 0 0 0 0 0 0 0 0 0 0 0 0 0 0 0 0 0 0 0 0 0 0 0 0 0

GEFSGL_con_cape1000_180.txt.gz
Probability
39 29 26 19 16 13 16 16 13 6 6 3 3 6 3 3 3 0 3 6 3 6 6 6 3 3 3 3 3 3 3 3 3 3 3 3 3 3 3 3 3 3 3
35 26 26 19 16 16 19 16 16 6 3 6 6 6 6 3 6 6 6 6 6 6 6 6 6 6 6 3 3 3 3 3 3 3 3 3 3 3 0 0 0 0 3
39 32 26 23 23 19 16 13 10 10 10 10 10 10 6 3 3 6 6 0 0 3 3 3 3 0 0 0 3 0 0 0 0 0 0 0 0 0 0 0 0 0 0
35 32 29 26 26 19 13 10 10 10 10 10 13 6 6 6 6 6 3 3 0 0 0 0 0 0 0 0 0 0 0 0 0 0 0 0 0 0 0 0 0 0 0
39 35 32 29 26 19 13 10 10 10 10 10 6 6 6 6 6 6 6 6 3 0 0 0 0 0 0 0 0 0 0 0 0 0 0 0 0 0 0 0 0 0 0
35 29 32 26 23 19 10 10 10 10 10 6 6 6 6 6 3 0 0 0 0 0 0 0 0 0 0 0 0 0 0 0 0 0 0 0 0 0 0 0 0 0 0
26 29 26 26 26 16 10 10 10 10 6 6 6 6 6 0 0 0 0 0 0 0 0 0 0 0 0 0 0 0 0 0 0 0 0 0 0 0 0 0 0 0 0
23 23 26 26 19 19 13 13 10 10 6 3 3 3 0 0 0 0 0 0 0 0 0 0 0 0 0 0 0 0 0 0 0 0 0 0 0 0 0 0 0 0 0
23 23 19 19 16 16 13 10 6 3 3 3 0 0 0 0 0 0 0 0 0 0 0 0 0 0 0 0 0 0 0 0 0 0 0 0 0 0 0 0 0 0 0
16 16 10 10 13 13 3 3 3 3 0 0 0 0 0 0 0 0 0 0 0 0 0 0 0 0 0 0 0 0 0 0 0 0 0 0 0 0 0 0 0 0 0
13 10 10 10 6 3 3 3 0 0 0 0 0 0 0 0 0 0 0 0 0 0 0 0 0 0 0 0 0 0 0 0 0 0 0 0 0 0 0 0 0 0 0
10 10 6 3 3 3 3 0 0 0 0 0 0 0 0 0 0 0 0 0 0 0 0 0 0 0 0 0 0 0 0 0 0 0 0 0 0 0 0 0 0 0 0
6 10 6 3 3 3 3 0 0 0 0 0 0 0 0 0 0 0 0 0 0 0 0 0 0 0 0 0 0 0 0 0 0 0 0 0 0 0 0 0 0 0 0
10 10 3 3 3 3 0 0 0 0 0 0 0 0 0 0 0 0 0 0 0 0 0 0 0 0 0 0 0 0 0 0 0 0 0 0 0 0 0 0 0 0 0
10 6 3 3 0 0 0 0 0 0 0 0 0 0 0 0 0 0 0 0 0 0 0 0 0 0 0 0 0 0 0 0 0 0 0 0 0 0 0 0 0 0 0
10 6 3 3 0 0 0 0 0 0 0 0 0 0 0 0 0 0 0 0 0 0 0 0 0 0 0 0 0 0 0 0 0 0 0 0 0 0 0 0 0 0 0
6 3 3 0 0 0 0 0 0 0 0 0 0 0 0 0 0 0 0 0 0 0 0 0 0 0 0 0 0 0 0 0 0 0 0 0 0 0 0 0 0 0 0
3 3 0 0 0 0 0 0 0 0 0 0 0 0 0 0 0 0 0 0 0 0 0 0 0 0 0 0 0 0 0 0 0 0 0 0 0 0 0 0 0 0 0
3 0 0 0 0 0 0 0 0 0 0 0 0 0 0 0 0 0 0 0 0 0 0 0 0 0 0 0 0 0 0 0 0 0 0 0 0 0 0 0 0 0 0
0 0 0 0 0 0 0 0 0 0 0 0 0 0 0 0 0 0 0 0 0 0 0 0 0 0 0 0 0 0 0 0 0 0 0 0 0 0 0 0 0 0 0
0 0 0 0 0 0 0 0 0 0 0 0 0 0 0 0 0 0 0 0 0 0 0 0 0 0 0 0 0 0 0 0 0 0 0 0 0 0 0 0 0 0 0
0 0 0 0 0 0 0 0 0 0 0 0 0 0 0 0 0 0 0 0 0 0 0 0 0 0 0 0 0 0 0 0 0 0 0 0 0 0 0 0 0 0 0
0 0 0 0 0 0 0 0 0 0 0 0 0 0 0 0 0 0 0 0 0 0 0 0 0 0 0 0 0 0 0 0 0 0 0 0 0 0 0 0 0 0 0
3 0 0 0 0 0 0 0 0 0 0 0 0 0 0 0 0 0 0 0 0 0 0 0 0 0 0 0 0 0 0 0 0 0 0 0 0 0 0 0 0 0 0
0 0 0 0 0 0 0 0 0 0 0 0 0 0 0 0 0 0 0 0 0 0 0 0 0 0 0 0 0 0 0 0 0 0 0 0 0 0 0 0 0 0 0
0 0 0 0 0 0 0 0 0 0 0 0 0 0 0 0 0 0 0 0 0 0 0 0 0 0 0 0 0 0 0 0 0 0 0 0 0 0 0 0 0 0 0

GEFSGL_con_cape1000_186.txt.gz
Probability
71 68 68 65 61 61 61 45 52 52 52 42 42 35 35 29 29 29 26 29 35 39 39 39 35 35 35 32 26 26 29 23 13 16 23 10 13 13 16 10 10 16 13
71 68 68 58 58 55 52 45 42 42 42 39 42 39 23 26 32 29 29 29 29 32 32 32 32 29 32 29 26 26 29 23 13 6 6 10 6 3 6 16 0 0 0
68 61 65 61 55 52 52 45 42 35 35 35 32 32 29 26 23 26 29 26 19 16 16 16 19 23 23 23 23 13 16 3 13 6 6 10 10 6 0 0 0 10 0
61 65 65 58 55 52 45 39 42 35 39 35 29 29 29 19 19 23 23 23 23 19 19 19 16 16 13 13 10 10 10 13 10 3 6 6 10 6 3 3 0 3 3
61 61 61 55 52 35 29 32 32 35 29 32 29 23 23 19 16 16 16 16 23 19 16 16 13 10 3 3 6 13 10 10 6 6 6 6 6 10 6 3 0 0 0
65 58 52 48 39 29 29 29 29 35 29 29 26 26 26 13 3 3 3 10 16 16 13 10 10 10 0 0 0 0 0 10 10 10 6 6 6 10 10 3 3 0 0
61 55 55 42 39 32 26 26 29 29 29 29 26 26 19 3 0 0 0 6 6 13 10 10 10 6 6 10 0 0 0 0 0 3 6 6 10 10 10 6 6 6 3
61 55 45 35 32 29 29 26 26 26 26 26 19 16 13 3 0 0 0 0 6 10 10 10 10 10 6 6 10 10 6 6 3 0 0 6 10 6 10 10 3 3 0
45 48 45 32 35 26 26 26 26 23 23 23 13 13 13 3 0 0 0 0 3 3 3 3 6 3 3 3 3 3 3 10 3 0 0 0 0 0 0 3 0 0 0
45 45 35 29 29 23 23 26 23 23 19 13 10 10 10 3 0 0 0 0 3 3 3 3 3 3 0 0 3 3 3 3 3 0 0 0 0 0 0 0 0 0 0
42 39 35 35 32 26 23 19 19 13 10 6 3 3 3 0 0 0 0 0 0 3 3 3 3 3 0 0 0 0 3 3 3 0 0 0 3 3 0 0 0 0 0
29 23 29 29 26 16 16 13 13 6 6 3 3 3 0 0 0 0 0 0 0 0 0 0 3 0 0 0 0 0 0 0 0 0 0 0 0 0 0 0 0 0 0
23 23 19 23 23 19 16 13 10 6 6 3 3 3 0 0 0 0 0 0 0 0 0 0 0 0 0 0 0 0 0 0 0 0 0 0 0 0 0 0 0 0 0
26 19 19 19 19 16 16 16 10 6 6 6 3 3 0 0 0 0 0 0 0 0 0 0 0 0 0 0 0 0 0 0 0 0 0 0 0 0 0 0 0 0 0
23 23 23 16 16 16 10 10 10 10 3 3 3 3 0 0 0 0 0 0 0 0 0 0 0 0 0 0 0 0 0 0 0 0 0 0 0 0 0 0 0 0 0
26 23 23 19 13 13 10 6 0 3 0 0 3 0 0 0 0 0 0 0 0 0 0 0 0 0 0 0 0 0 0 0 0 0 0 0 0 0 0 0 0 0 0
26 23 23 16 13 10 10 6 6 0 0 0 0 0 0 0 0 0 0 0 0 0 0 0 0 0 0 0 0 0 0 0 0 0 0 0 0 0 0 0 0 0 0
23 13 16 19 10 10 10 3 3 0 0 0 0 0 0 0 0 0 0 0 0 0 0 0 0 0 0 0 0 0 0 0 0 0 0 0 0 0 0 0 0 0 0
16 13 13 10 6 6 6 3 3 0 0 0 0 0 0 0 0 0 0 0 0 0 0 0 0 0 0 0 0 0 0 0 0 0 0 0 0 0 0 0 0 0 0
13 6 6 6 6 3 3 0 0 0 0 0 0 0 0 0 0 0 0 0 0 0 0 0 0 0 0 0 0 0 0 0 0 0 0 0 0 0 0 0 0 0 0
10 6 3 6 6 3 3 0 0 0 0 0 0 0 0 0 0 0 0 0 0 0 0 0 0 0 0 0 0 0 0 0 0 0 0 0 0 0 0 0 0 0 0
10 6 6 6 6 6 3 0 0 0 0 0 0 0 0 0 0 0 0 0 0 0 0 0 0 0 0 0 0 0 0 0 0 0 0 0 0 0 0 0 0 0 0
6 6 6 6 6 0 0 0 0 0 0 0 0 0 0 0 0 0 0 0 0 0 0 0 0 0 0 0 0 0 0 0 0 0 0 0 0 0 0 0 0 0 0
6 6 3 0 0 0 0 0 0 0 0 0 0 0 0 0 0 0 0 0 0 0 0 0 0 0 0 0 0 0 0 0 0 0 0 0 0 0 0 0 0 0 0
6 6 6 3 0 0 0 0 0 0 0 0 0 0 0 0 0 0 0 0 0 0 0 0 0 0 0 0 0 0 0 0 0 0 0 0 0 0 0 0 0 0 0
6 6 6 6 0 3 0 0 0 0 0 0 0 0 0 0 0 0 0 0 0 0 0 0 0 0 0 0 0 0 0 0 0 0 0 0 0 0 0 0 0 0 0

GEFSGL_con_cape1000_192.txt.gz
Probability
77 81 77 71 68 71 71 58 61 65 58 45 42 42 45 48 42 52 45 42 42 48 42 32 35 32 48 42 39 39 23 16 10 6 10 10 10 6 3 6 6 6 0
77 81 77 71 68 68 58 58 58 61 52 48 55 45 39 35 35 39 32 32 39 39 32 32 26 23 23 29 29 16 16 13 6 3 6 6 6 10 6 6 6 6 3
74 74 74 74 71 65 58 55 48 55 52 45 45 35 35 32 32 32 29 26 26 26 23 19 19 23 23 19 19 16 19 10 13 3 3 10 3 3 6 6 3 3 0
71 74 71 71 68 61 58 48 52 48 45 42 42 39 32 29 29 26 26 29 29 23 23 16 19 16 19 16 13 13 13 16 13 10 3 10 6 3 6 0 0 3 3
71 71 71 71 68 58 48 48 48 45 42 42 39 35 35 29 23 23 26 26 19 19 23 16 16 10 6 6 6 10 10 10 10 10 6 6 6 6 0 0 0 3 3
74 71 71 71 65 45 45 45 45 45 39 39 35 35 35 16 3 6 10 23 19 23 16 19 13 10 6 6 0 0 0 3 10 10 10 6 3 6 6 3 3 0 0
71 68 68 61 48 48 42 39 35 35 35 39 32 26 16 13 3 3 3 10 10 13 10 10 3 3 0 6 6 0 0 0 0 0 3 3 6 6 6 6 3 3 3
68 65 65 58 45 42 42 35 39 32 32 29 26 26 16 10 0 0 0 3 6 6 3 6 6 3 3 3 0 0 10 6 0 0 0 0 0 0 0 0 0 0 3
68 61 52 48 39 35 35 35 32 32 32 26 26 23 16 10 0 0 0 3 3 6 0 3 3 3 0 0 0 0 0 0 0 0 0 0 0 0 0 0 0 0 0
65 61 55 48 35 32 32 29 29 29 26 23 19 19 16 6 0 0 0 3 3 3 3 3 0 0 0 0 0 0 0 0 0 0 0 0 0 0 0 0 0 0 0
65 55 48 42 32 29 32 32 26 26 23 19 16 16 16 6 0 0 0 0 3 0 0 0 0 0 0 0 0 0 0 0 0 0 0 0 0 0 0 0 0 0 0
55 42 42 29 29 29 29 26 26 26 23 19 13 16 13 10 0 0 0 0 0 0 0 0 0 0 0 0 0 0 0 0 0 0 0 0 0 0 0 0 0 0 0
42 32 32 29 29 29 26 26 26 26 23 16 16 13 13 10 0 0 0 0 0 0 0 0 0 0 0 0 0 0 0 0 0 0 0 0 0 0 0 0 0 0 0
35 29 23 26 26 26 26 26 26 23 19 19 16 16 16 10 0 0 0 0 0 0 0 0 0 0 0 0 0 0 0 0 0 0 0 0 0 0 0 0 0 0 0
26 23 19 19 23 26 23 19 19 19 19 16 16 16 13 10 10 0 0 0 0 0 0 0 0 0 0 0 0 0 0 0 0 0 0 0 0 0 0 0 0 0 0
29 26 19 19 23 23 16 13 6 6 3 3 3 3 3 3 0 0 0 0 0 0 0 0 0 0 0 0 0 0 0 0 0 0 0 0 0 0 0 0 0 0 0
19 16 16 16 16 19 13 13 13 6 0 0 3 3 3 0 0 0 0 0 0 0 0 0 0 0 0 0 0 0 0 0 0 0 0 0 0 0 0 0 0 0 0
23 13 16 19 13 13 10 10 6 6 10 3 0 0 0 0 0 0 0 0 0 0 0 0 0 0 0 0 0 0 0 0 0 0 0 0 0 0 0 0 0 0 0
16 13 19 13 13 13 13 6 6 6 6 3 6 0 0 0 0 0 0 0 0 0 0 0 0 0 0 0 0 0 0 0 0 0 0 0 0 0 0 0 0 0 0
19 10 10 13 10 13 10 6 6 6 6 3 3 0 0 0 0 0 0 0 0 0 0 0 0 0 0 0 0 0 0 0 0 0 0 0 0 0 0 0 0 0 0
6 6 10 10 10 6 3 3 6 6 6 3 3 3 0 0 0 0 0 0 0 0 0 0 0 0 0 0 0 0 0 0 0 0 0 0 0 0 0 0 0 0 0
6 6 6 10 10 6 3 3 6 6 6 6 3 3 0 0 0 0 0 0 0 0 0 0 0 0 0 0 0 0 0 0 0 0 0 0 0 0 0 0 0 0 0
6 6 6 6 6 3 3 3 6 6 6 6 3 0 0 0 0 0 0 0 0 0 0 0 0 0 0 0 0 0 0 0 0 0 0 0 0 0 0 0 0 0 0
0 3 3 6 6 6 3 3 3 3 6 3 0 0 0 0 0 0 0 0 0 3 3 3 3 0 0 0 0 0 0 0 0 0 0 0 0 0 0 0 0 0 0
0 0 3 3 3 6 6 3 3 3 0 0 0 0 0 0 0 0 0 0 0 0 3 3 0 0 0 0 0 0 0 0 0 0 0 0 0 0 0 0 0 0 0
0 0 3 3 3 3 6 6 6 3 3 3 0 0 0 0 0 0 0 0 0 0 3 0 0 0 0 0 0 0 0 0 0 0 0 0 0 0 0 0 0 0 0

GEFSGL_con_cape1000_198.txt.gz
Probability
58 45 48 42 42 35 32 29 29 26 26 26 26 23 16 13 10 10 13 10 6 3 3 3 3 3 3 3 3 3 3 0 0 0 0 0 0 0 0 0 0 0 0
58 48 45 45 42 39 39 29 26 26 26 26 23 19 13 10 10 10 10 10 6 10 10 6 10 6 3 0 0 0 0 0 0 0 0 0 0 0 0 0 0 0 0
58 52 52 48 39 39 32 29 26 26 26 26 19 19 13 10 10 10 10 10 10 6 10 10 6 6 6 6 3 0 0 0 0 0 0 0 0 0 0 0 0 0 0
61 52 52 45 35 29 29 29 26 26 19 19 19 19 16 13 13 10 10 6 10 10 10 6 6 6 6 3 3 0 0 0 0 0 0 0 0 0 0 0 0 0 0
61 48 48 32 32 29 29 26 19 19 19 19 23 19 10 6 6 6 10 10 6 3 3 3 3 3 3 3 3 3 0 0 0 0 0 0 0 0 0 0 0 0 0
55 48 45 29 26 23 23 23 23 19 19 19 19 10 6 6 6 6 3 3 3 3 3 3 3 3 3 0 0 0 0 0 0 0 0 0 0 0 0 0 0 0 0
52 52 35 26 23 26 26 23 23 19 19 13 10 10 6 6 6 6 3 3 3 3 3 3 0 0 0 0 0 0 0 0 0 0 0 0 0 0 0 0 0 0 0
52 45 29 26 26 26 26 26 23 16 16 13 10 10 10 6 6 6 3 3 3 3 0 0 0 0 0 0 0 0 0 0 0 0 0 0 0 0 0 0 0 0 0
42 35 26 29 26 26 23 23 19 16 16 16 10 10 10 6 6 3 3 3 0 0 0 0 0 0 0 0 0 0 0 0 0 0 0 0 0 0 0 0 0 0 0
35 35 29 23 19 23 19 19 16 19 13 13 10 10 10 6 6 0 0 0 0 0 0 0 0 0 0 0 0 0 0 0 0 0 0 0 0 0 0 0 0 0 0
26 26 23 26 16 16 13 19 19 13 13 13 10 10 10 6 6 0 0 0 0 0 0 0 0 0 0 0 0 0 0 0 0 0 0 0 0 0 0 0 0 0 0
23 23 19 23 23 19 13 13 13 13 13 10 10 10 10 6 3 0 0 0 0 0 0 0 0 0 0 0 0 0 0 0 0 0 0 0 0 0 0 0 0 0 0
19 16 10 16 19 16 19 13 13 13 13 10 10 10 10 6 3 0 0 0 0 0 0 0 0 0 0 0 0 0 0 0 0 0 0 0 0 0 0 0 0 0 0
16 10 6 13 13 13 13 13 13 13 13 10 10 10 10 6 3 0 0 0 0 0 0 0 0 0 0 0 0 0 0 0 0 0 0 0 0 0 0 0 0 0 0
13 10 10 13 13 13 10 10 13 13 16 16 13 10 10 6 3 0 0 0 0 0 0 0 0 0 0 0 0 0 0 0 0 0 0 0 0 0 0 0 0 0 0
10 6 6 6 10 10 10 6 6 3 3 3 6 6 3 3 3 0 0 0 0 0 0 0 0 0 0 0 0 0 0 0 0 0 0 0 0 0 0 0 0 0 0
6 3 3 6 6 10 6 6 3 3 0 0 0 3 3 3 3 0 0 0 0 0 0 0 0 0 0 0 0 0 0 0 0 0 0 0 0 0 0 0 0 0 0
3 3 3 3 6 6 6 6 6 3 3 3 0 0 0 3 0 0 0 0 0 0 0 0 0 0 0 0 0 0 0 0 0 0 0 0 0 0 0 0 0 0 0
3 3 3 3 3 3 3 6 3 3 3 3 0 0 0 0 0 0 0 0 0 0 0 0 0 0 0 0 0 0 0 0 0 0 0 0 0 0 0 0 0 0 0
3 3 3 3 0 3 3 6 3 3 3 3 3 0 0 0 0 0 0 0 0 0 0 0 0 0 0 0 0 0 0 0 0 0 0 0 0 0 0 0 0 0 0
3 3 0 0 0 3 6 6 3 3 3 3 3 0 0 0 0 0 0 0 0 0 0 0 0 0 0 0 0 0 0 0 0 0 0 0 0 0 0 0 0 0 0
3 3 0 0 0 0 3 6 3 3 3 3 3 0 0 0 0 0 0 0 0 0 0 0 0 0 0 0 0 0 0 0 0 0 0 0 0 0 0 0 0 0 0
3 3 3 0 0 0 6 3 3 3 0 0 0 0 0 0 0 0 0 0 0 0 0 0 0 0 0 0 0 0 0 0 0 0 0 0 0 0 0 0 0 0 0
0 0 0 0 0 0 0 3 3 3 0 0 0 0 0 0 0 0 0 0 0 0 0 0 0 0 0 0 0 0 0 0 0 0 0 0 0 0 0 0 0 0 0
0 0 0 0 0 0 0 3 3 3 0 0 0 0 0 0 0 0 0 0 0 0 0 0 0 0 0 0 0 0 0 0 0 0 0 0 0 0 0 0 0 0 0
0 0 0 0 0 0 0 0 3 3 0 0 0 0 0 0 0 0 0 0 0 0 0 0 0 0 0 0 0 0 0 0 0 0 0 0 0 0 0 0 0 0 0

GEFSGL_con_cape1000_204.txt.gz
Probability
32 32 32 32 29 29 29 29 23 23 23 26 26 26 19 16 6 6 6 6 6 10 10 3 6 3 0 0 0 0 0 0 0 0 0 0 0 0 0 0 3 3 3
35 32 35 35 32 32 32 29 29 29 26 26 26 23 19 16 13 10 10 10 10 10 6 3 3 3 10 10 0 0 0 0 0 3 0 0 0 0 0 0 0 0 3
35 32 35 39 32 32 29 29 29 26 23 23 23 23 16 16 10 10 10 6 6 6 6 6 6 10 10 10 3 3 0 0 0 0 0 0 0 0 0 0 0 0 0
42 39 42 35 29 29 29 29 26 23 23 23 19 19 16 13 10 6 6 6 6 6 6 6 10 6 6 6 3 3 3 3 0 0 0 0 0 0 0 0 0 0 0
42 35 35 32 29 23 26 19 19 19 16 19 19 19 10 10 10 10 6 6 6 6 10 6 3 3 3 3 3 3 3 3 3 3 0 3 0 0 0 0 0 0 0
32 29 29 19 19 19 19 19 19 19 16 13 13 16 10 10 6 6 6 10 10 10 3 3 3 3 3 3 0 0 0 0 3 3 3 3 3 3 0 0 0 0 0
32 26 19 16 23 16 16 16 16 16 13 13 10 10 6 6 6 6 3 3 6 6 3 3 3 3 3 0 0 0 0 0 0 0 0 0 3 3 0 0 0 0 0
32 29 16 13 13 19 16 16 13 13 13 13 10 6 6 6 6 3 0 0 0 3 3 3 3 3 0 0 0 0 0 0 0 0 0 0 0 0 0 0 0 0 0
35 32 26 13 13 13 19 13 13 16 13 10 10 6 6 6 6 6 0 3 3 3 3 3 3 0 0 0 0 0 0 0 0 0 0 0 0 0 0 0 0 0 0
29 32 19 13 13 13 16 13 13 13 13 10 10 6 6 6 6 6 0 3 3 3 3 0 0 0 0 0 0 0 0 0 0 0 0 0 0 0 0 0 0 0 0
26 23 16 16 16 13 10 13 13 13 10 10 6 6 6 6 6 3 3 3 3 3 3 3 0 0 0 0 0 0 0 0 0 0 0 0 0 0 0 0 0 0 0
19 13 13 6 10 6 3 3 3 6 6 6 6 6 3 3 3 3 3 3 3 3 3 3 0 0 0 0 0 0 0 0 0 0 0 0 0 0 0 0 0 0 0
6 10 6 6 6 6 3 6 3 3 0 3 3 3 3 3 3 3 3 3 0 3 3 3 0 0 0 0 0 0 0 0 0 0 0 0 0 0 0 0 0 0 0
6 6 0 0 0 3 0 0 0 0 0 0 3 3 3 3 3 3 3 3 3 3 3 0 0 0 0 0 0 0 0 0 0 0 0 0 0 0 0 0 0 0 0
3 3 0 0 0 0 0 0 0 0 0 0 0 0 3 3 3 3 3 3 3 3 3 0 0 0 0 0 0 0 0 0 0 0 0 0 0 0 0 0 0 0 0
6 3 0 0 0 0 0 0 0 0 0 0 0 0 0 0 0 0 0 3 3 3 0 0 0 0 0 0 0 0 0 0 0 0 0 0 0 0 0 0 0 0 0
6 6 6 3 0 0 0 0 0 0 0 0 0 0 0 0 0 0 0 0 0 0 3 3 0 0 0 0 0 0 0 0 0 0 0 0 0 0 0 0 0 0 0
6 6 6 3 3 0 0 0 0 0 3 0 0 0 0 0 0 0 0 0 0 0 3 3 3 0 0 0 0 0 0 0 0 0 0 0 0 0 0 0 0 0 0
6 6 6 3 3 0 0 0 0 0 0 0 0 0 0 0 0 0 0 0 3 3 3 3 3 0 0 0 0 0 0 0 0 0 0 0 0 0 0 0 0 0 0
6 6 6 3 3 0 0 0 0 0 0 0 0 0 0 0 0 3 3 3 3 3 3 3 0 0 0 0 0 0 0 0 0 0 0 0 0 0 0 0 0 0 0
6 6 3 3 3 0 0 0 0 0 0 0 0 0 0 0 0 3 3 3 3 3 3 3 3 0 0 0 0 0 0 0 0 0 0 0 0 0 0 0 0 0 0
6 6 3 3 3 0 0 0 0 0 0 0 0 0 0 0 0 0 3 3 3 3 3 3 3 0 0 0 0 0 0 0 0 0 0 0 0 0 0 0 0 0 0
3 6 6 3 3 0 0 0 0 0 0 0 0 0 0 0 0 0 3 3 3 3 3 3 0 0 0 0 0 0 0 0 0 0 0 0 0 0 0 0 0 0 0
0 0 0 0 3 0 0 0 0 0 0 0 0 0 0 0 0 0 3 3 3 3 3 0 0 0 0 0 0 0 0 0 0 0 0 0 0 0 0 0 0 0 0
0 0 0 0 0 0 0 0 0 0 0 0 0 0 0 0 0 0 0 3 3 3 0 0 0 0 0 0 0 0 0 0 0 0 0 0 0 0 0 0 0 0 0
0 0 0 0 0 0 0 0 0 0 0 0 0 0 0 0 0 0 0 0 0 0 0 0 0 0 0 0 0 0 0 0 0 0 0 0 0 0 0 0 0 0 0

GEFSGL_con_cape1000_210.txt.gz
Probability
74 74 71 68 65 65 58 55 55 52 48 55 48 39 35 35 32 35 35 35 23 29 29 29 35 32 23 26 26 29 26 29 13 13 16 13 23 19 16 16 10 13 3
74 74 71 68 68 65 55 55 55 52 52 45 39 42 32 32 32 35 32 29 29 23 23 23 23 23 32 32 26 26 29 35 16 19 19 19 13 13 13 13 3 3 3
77 74 71 74 68 65 55 52 52 48 48 48 39 35 35 32 29 26 26 26 29 23 26 23 19 19 29 32 35 29 26 16 23 19 16 16 13 10 10 6 3 6 3
77 65 71 71 65 61 52 48 52 52 45 42 39 35 35 29 26 26 26 26 23 23 23 23 19 19 23 29 29 29 23 23 19 16 13 10 10 10 6 3 3 10 6
71 65 68 65 61 55 48 48 48 42 39 32 32 32 32 32 23 23 19 19 29 29 29 29 23 13 10 16 10 19 19 16 19 13 10 13 10 10 10 6 6 10 6
68 68 65 58 55 48 48 45 45 39 39 35 32 32 32 19 10 10 16 19 23 29 26 23 19 10 6 3 0 0 3 10 13 13 6 10 10 6 10 10 10 6 6
68 65 58 58 45 42 39 42 42 42 42 35 32 32 26 13 10 6 10 19 26 26 26 23 6 6 6 6 3 0 0 0 0 6 3 6 6 3 3 3 10 6 6
58 55 52 48 45 39 39 32 32 42 42 35 29 29 29 16 10 6 3 16 23 23 23 16 10 6 6 6 6 6 6 6 0 0 3 3 3 6 6 3 3 3 6
55 52 52 42 42 39 39 32 32 32 32 29 23 19 19 13 6 3 0 19 23 23 19 16 13 10 3 3 3 6 6 3 0 0 0 0 0 0 0 0 3 3 0
55 48 48 45 42 35 35 32 32 32 32 19 19 23 19 13 3 3 0 16 23 19 19 10 3 3 3 3 6 6 6 6 3 0 0 0 0 0 0 0 3 3 3
52 45 45 39 35 35 32 35 29 26 26 19 16 16 16 13 3 3 3 13 10 6 6 10 6 3 3 0 0 6 3 0 0 0 0 0 0 0 0 0 0 0 0
42 42 39 39 35 23 23 19 23 23 23 19 19 16 16 16 6 3 3 3 3 10 3 3 3 3 0 0 0 0 0 0 0 0 0 0 0 0 0 0 0 0 0
42 42 39 35 35 19 19 16 16 16 19 16 16 6 10 10 10 3 3 3 0 3 10 3 3 3 0 0 0 0 0 0 0 0 0 0 0 0 0 0 0 0 0
45 45 32 29 19 16 16 16 16 13 6 6 13 10 6 10 13 10 3 3 3 3 3 3 3 3 0 0 0 0 0 0 0 0 0 0 0 0 0 0 0 0 0
39 35 26 26 23 23 16 16 13 13 6 6 6 6 10 10 3 3 3 3 3 0 0 6 6 6 3 0 0 0 0 0 0 0 0 0 0 0 0 0 0 0 0
39 29 26 23 26 16 10 3 0 0 0 0 3 3 3 3 3 0 0 0 0 0 0 3 3 3 3 3 3 3 0 0 3 3 0 0 0 0 0 0 0 0 0
32 26 19 19 23 16 10 3 0 0 0 0 0 0 0 0 0 0 0 0 0 0 0 0 3 3 3 3 6 3 3 3 3 0 0 0 3 0 0 0 0 0 0
16 13 13 19 16 13 10 6 6 0 0 0 0 0 0 0 0 0 0 0 0 0 0 0 0 3 3 3 3 3 3 3 6 3 3 3 3 0 0 0 0 0 0
16 13 13 10 13 10 10 10 10 3 3 0 0 0 0 0 0 0 0 0 0 0 0 3 3 3 6 3 3 3 3 3 3 6 3 3 6 0 0 0 0 0 0
16 10 10 6 10 6 6 6 3 6 6 3 3 3 3 0 3 0 0 0 0 0 3 3 3 0 3 3 3 3 3 3 3 0 0 3 3 0 0 0 0 0 0
13 10 3 6 6 6 6 6 6 3 3 3 6 3 3 3 0 3 0 0 0 0 0 0 0 0 0 3 3 3 3 3 3 0 0 0 0 0 0 0 0 0 0
16 13 10 6 6 3 3 6 6 3 3 3 6 3 0 0 3 0 0 0 0 0 0 0 0 0 0 3 3 3 3 3 0 0 0 0 0 0 0 0 0 0 0
13 10 6 6 6 3 3 3 6 3 3 3 3 6 3 3 3 0 0 0 0 0 0 0 0 0 0 0 3 3 3 3 0 0 0 0 0 0 0 0 0 0 0
6 10 6 3 6 6 6 6 3 0 3 3 3 3 3 0 3 0 0 0 0 0 0 0 0 0 0 0 3 3 3 0 0 0 0 0 0 0 0 0 0 0 0
6 3 6 3 3 3 6 6 6 0 0 0 3 0 0 0 0 0 0 0 0 0 0 0 0 0 0 0 3 3 3 0 0 0 0 0 0 0 0 0 0 0 0
6 6 6 6 6 3 3 6 3 3 3 3 3 3 3 0 0 0 0 0 0 0 0 0 0 0 0 0 3 3 0 0 0 0 0 0 0 0 0 0 0 0 0